STARLINK-5695, 55485

Orbit data source: Space-Track

STARLINK-5695, 55485 is a payload satellite owned by SpaceX/Seattle (US) in LEO that was launched on Thu, 02 Feb 2023 UTC via an FALCON 9 launch vehicle from the Air Force Eastern Test Range (AFETR). Payload-class satellites include a variety of spacecraft equipped with specific instruments for various scientific and technological missions. These include communications satellites like Starlink; space stations such as the ISS; scientific satellites like the Hubble; Earth observation satellites from companies like Planet Labs, Umbra, and HawkEye 360; GPS; miniature CubeSats for education and research; and military/defense satellites.

Loading next visibility...
Identifier
55485, 2023-015AN
Orbit
LEO
Country
Flag of USUS
Related business
Manufacturer
SpaceX/Seattle
Mission
Operational Commercial Communications
Bus & Motor
STARLINK, Unknown motor
Mass
305 kg wet, ~290 kg dry
Launch date (UTC)
2023-02-02 (4 years ago)
Launch vehicle
FALCON 9
Launch site
Air Force Eastern Test Range (AFETR)
Object type
Payload
Rocket body
Debris
Shape & HBR
Box + 1 Pan, 10.1 m
Radar Cross Section
13.562 m², Large (>1 m²)

Expand to show TLE details & history
Last TLE update: 6 hours ago

TLE from 6 hours ago
0 STARLINK-5695
1 55485U 23015AN  26258.44820558  .00000241  00000-0  18313-4 0  9994
2 55485  43.0050 348.3116 0001943 280.7247  79.3386 15.27575668199618
Epoch: 2026-09-15T10:45Z
TLE epoch observation values (Epoch: 2026-09-15T10:45:24.962Z)
Latitude
Longitude
-167.45641°
Altitude
482.592 km
Speed
7.626 km/s
True Right ascension
23h 13m 14s
True Declination
0° 00' 00"
Sunlit
Object was in full shadow at epoch
Visualization orbit readout
Latitude
Unknown
Longitude
Unknown
Altitude
Unknown
Speed
Unknown
Apparent Right ascension
Unknown
Apparent Declination
Unknown
Sunlit
N/A
Visualization observer readout
Local Sidereal Time
09:25:57
Azimuth
Unknown
Elevation
Unknown
Doppler factor
Unknown
Orbital elements
Apogee altitude
486.34 km
Perigee altitude
483.673 km
Semi-major axis
6,863.143 km
Eccentricity
0.00019
Inclination
43.005°
RAAN
348.3116°
Arg. of periapsis
280.7247°
True anomaly
79.36048°
Mean anomaly
79.3386°
Eccentric anomaly
79.34954°
Mean motion
3.81732 °/min
Orbital period
94.31 mins
BSTAR
0.000018313
Loading maneuver chart data...
Computing Atmospheric mass density...
Loading historical data...
Loading historical data...
Loading historical data...
Loading historical data...
Loading historical data...
Loading historical data...
Loading historical data...

Documentation

Showing up to 5 results
|